Regional Weather Roundup
Issued by NWS

Home | Current Version | Previous Version | Graphics & Text | Print | Product List | Glossary On
Versions: 1 2 3 4 5 6 7 8 9 10 11 12 13 14 15 16 17 18 19 20 21 22 23 24 25 26 27 28 29 30 31 32 33 34 35 36 37 38 39 40 41 42 43 44 45 46 47 48 49 50
000
ASUS43 KFSD 111910
RWRSD

WEATHER ROUNDUP FOR SOUTH DAKOTA
NATIONAL WEATHER SERVICE SIOUX FALLS SD
200 PM CDT FRI JUL 11 2014

NOTE: "FAIR" INDICATES FEW OR NO CLOUDS BELOW 12,000 FEET WITH NO
SIGNIFICANT WEATHER AND/OR OBSTRUCTIONS TO VISIBILITY.


SDZ001>005-009-010-012>017-112000-
NORTHWEST AND NORTH CENTRAL SOUTH DAKOTA

CITY           SKY/WX    TMP DP  RH WIND       PRES   REMARKS
BUFFALO          N/A     81  56  42 NE18      30.02F
FAITH            N/A     84  63  49 NE18G25   30.04R
MOBRIDGE       MOSUNNY   83  69  62 NE13      29.97R
$$

SDZ012>016-024>037-041>051-057-063-072>074-112000-
SOUTHWEST AND SOUTH CENTRAL SOUTH DAKOTA

CITY           SKY/WX    TMP DP  RH WIND       PRES   REMARKS
RAPID CTY ARPT MOSUNNY   86  64  47 N9        30.05S
PIERRE         SUNNY     90  69  50 NE8       29.95S
CUSTER         MOSUNNY   79  56  45 E13       30.19S
ELLSWORTH AFB  PTSUNNY   84  67  56 NE10      30.06S
PHILIP         MOSUNNY   90  65  43 NE12      29.98R
PINE RIDGE     PTSUNNY   86  63  45 VRB5      30.04R
WINNER         FAIR      92  67  43 NE6       29.96S HX  95
$$

SDZ004>011-016>023-039-040-112000-
NORTHEAST SOUTH DAKOTA

CITY           SKY/WX    TMP DP  RH WIND       PRES   REMARKS
ABERDEEN       MOSUNNY   84  68  58 N3        29.94R
WATERTOWN      PTSUNNY   85  70  60 VRB7      29.94S
SISSETON         N/A     87  69  54 N9        29.91R
$$

SDZ017-020-022-023-036>040-048>070-112000-
SOUTHEAST SOUTH DAKOTA

CITY           SKY/WX    TMP DP  RH WIND       PRES   REMARKS
SIOUX FALLS    CLOUDY    81  71  71 VRB3      29.96R
HURON          MOSUNNY   92  62  36 NE12      29.92R
CHAMBERLAIN    MOSUNNY   89  67  48 NE8       29.94S
MITCHELL       PTSUNNY   87  73  62 VRB6      29.93S
YANKTON        PTSUNNY   82  72  69 S5        29.95R
$$

ABBREVIATIONS USED IN REMARKS
   TC - TEMPERATURE IN CELSIUS
  WCI - WIND CHILL INDEX
   HX - HEAT INDEX
  VSB - VISIBILITY



USA.gov is the U.S. government's official web portal to all federal, state and local government web resources and services.